Date String (YYYY-MM-DD hh:mm:ss) UTC,Instrument flags,Ambient pressure (hPa),Sample flow (lpm),Bypass flow (lpm),Sample temperature (°C),Ambient temperature (°C),ASC tube jacket temperature (°C),LED temperature (°C),Box temperature (°C),Sample RH (%),Span deviation,Mass concentration (μg/m³),Mass concentration (μg/m³),Mass concentration (μg/m³)
DateTimeUTC,F1_M11,P_M11,Q1_M11,Q2_M11,T1_M11,T2_M11,T3_M11,T4_M11,T5_M11,U1_M11,ZSPAN_M11,X0_M11,X2_M11,X1_M11
2022-04-08 02:00:00,,0831.7,5.00,0.00,26.3,25.4,00.0,35.3,28.1,05.1,0000.0,0006.96,0002.26,0001.06
2022-04-08 02:01:00,,0831.7,4.99,0.00,26.3,25.4,00.0,35.3,28.0,05.1,0000.0,0007.70,0002.35,0001.06
2022-04-08 02:02:00,,0831.9,4.99,0.00,26.3,25.4,00.0,35.3,28.0,05.1,0000.0,0008.09,0002.48,0001.08
2022-04-08 02:03:00,,0831.9,5.00,0.00,26.3,25.4,00.0,35.3,28.0,05.1,0000.0,0008.19,0002.47,0001.09
2022-04-08 02:04:00,,0832.0,4.99,0.00,26.3,25.4,00.0,35.3,28.0,05.1,0000.0,0007.93,0002.40,0001.09
2022-04-08 02:05:00,,0832.0,5.01,0.00,26.3,25.3,00.0,35.3,28.0,05.1,0000.0,0007.81,0002.32,0001.09
2022-04-08 02:06:00,,0832.0,5.00,0.00,26.2,25.3,00.0,35.3,28.0,05.1,0000.0,0008.53,0002.33,0001.11
2022-04-08 02:07:00,,0832.0,5.00,0.00,26.3,25.4,00.0,35.2,28.0,05.1,0000.0,0008.31,0002.32,0001.12
2022-04-08 02:08:00,,0832.0,4.99,0.00,26.3,25.4,00.0,35.2,28.1,05.1,0000.0,0008.24,0002.30,0001.11
2022-04-08 02:09:00,,0831.9,5.00,0.00,26.3,25.4,00.0,35.2,28.0,05.2,0000.0,0008.11,0002.22,0001.10
2022-04-08 02:10:00,,0832.0,4.99,0.00,26.3,25.4,00.0,35.2,28.0,05.2,0000.0,0007.80,0002.16,0001.10
2022-04-08 02:11:00,,0832.1,5.01,0.00,26.3,25.4,00.0,35.2,28.0,05.2,0000.0,0007.84,0002.12,0001.10
2022-04-08 02:12:00,,0832.1,4.99,0.00,26.3,25.4,00.0,35.2,28.1,05.2,0000.0,0007.38,0002.09,0001.10
2022-04-08 02:13:00,,0832.1,5.00,0.00,26.3,25.4,00.0,35.2,28.0,05.2,0000.0,0006.85,0002.02,0001.09
2022-04-08 02:14:00,,0832.1,5.01,0.00,26.3,25.4,00.0,35.2,28.1,05.3,0000.0,0006.54,0001.99,0001.09
2022-04-08 02:15:00,,0832.1,5.00,0.00,26.3,25.4,00.0,35.2,28.1,05.3,0000.0,0008.11,0002.02,0001.10
2022-04-08 02:16:00,,0832.1,5.00,0.00,26.3,25.4,00.0,35.2,28.1,05.3,0000.0,0008.89,0002.08,0001.10
2022-04-08 02:17:00,,0832.1,5.00,0.00,26.3,25.4,00.0,35.2,28.1,05.3,0000.0,0008.10,0002.08,0001.09
2022-04-08 02:18:00,,0832.1,5.01,0.00,26.3,25.4,00.0,35.2,28.1,05.3,0000.0,0008.12,0002.14,0001.10
2022-04-08 02:19:00,,0832.1,5.00,0.00,26.3,25.4,00.0,35.2,28.1,05.3,0000.0,0008.24,0002.18,0001.12
2022-04-08 02:20:00,,0832.1,5.00,0.00,26.3,25.4,00.0,35.2,28.1,05.4,0000.0,0008.52,0002.19,0001.11
2022-04-08 02:21:00,,0832.1,4.99,0.00,26.3,25.4,00.0,35.2,28.1,05.4,0000.0,0008.39,0002.23,0001.11
2022-04-08 02:22:00,,0832.1,5.00,0.00,26.3,25.4,00.0,35.2,28.1,05.4,0000.0,0008.45,0002.23,0001.11
2022-04-08 02:23:00,,0832.2,5.00,0.00,26.3,25.4,00.0,35.2,28.1,05.5,0000.0,0008.64,0002.22,0001.10
2022-04-08 02:24:00,,0832.2,5.00,0.00,26.3,25.4,00.0,35.2,28.1,05.5,0000.0,0009.05,0002.24,0001.11
2022-04-08 02:25:00,,0832.2,5.01,0.00,26.3,25.4,00.0,35.2,28.1,05.5,0000.0,0009.29,0002.31,0001.12
2022-04-08 02:26:00,,0832.3,5.01,0.00,26.3,25.4,00.0,35.2,28.1,05.6,0000.0,0010.35,0002.34,0001.13
2022-04-08 02:27:00,,0832.3,5.00,0.00,26.3,25.4,00.0,35.2,28.0,05.6,0000.0,0009.85,0002.41,0001.13
2022-04-08 02:28:00,,0832.4,5.00,0.00,26.3,25.4,00.0,35.2,28.0,05.6,0000.0,0009.84,0002.43,0001.13
2022-04-08 02:29:00,,0832.4,5.00,0.00,26.2,25.3,00.0,35.2,28.0,05.6,0000.0,0009.74,0002.35,0001.14
2022-04-08 02:30:00,,0832.5,5.00,0.00,26.2,25.4,00.0,35.2,28.0,05.7,0000.0,0010.13,0002.30,0001.13
2022-04-08 02:31:00,,0832.4,5.00,0.00,26.3,25.3,00.0,35.2,28.0,05.7,0000.0,0010.20,0002.33,0001.15
2022-04-08 02:32:00,,0832.5,5.00,0.00,26.2,25.3,00.0,35.2,28.1,05.7,0000.0,0010.30,0002.36,0001.15
2022-04-08 02:33:00,,0832.5,5.01,0.00,26.3,25.4,00.0,35.2,28.1,05.7,0000.0,0010.54,0002.37,0001.17
2022-04-08 02:34:00,,0832.6,5.00,0.00,26.3,25.4,00.0,35.2,28.1,05.7,0000.0,0010.27,0002.39,0001.17
2022-04-08 02:35:00,,0832.7,5.00,0.00,26.3,25.3,00.0,35.2,28.1,05.7,0000.0,0009.99,0002.39,0001.18
2022-04-08 02:36:00,,0832.7,5.00,0.00,26.3,25.3,00.0,35.2,28.1,05.7,0000.0,0009.90,0002.41,0001.18
2022-04-08 02:37:00,,0832.7,5.00,0.00,26.3,25.4,00.0,35.2,28.1,05.7,0000.0,0007.86,0002.40,0001.18
2022-04-08 02:38:00,,0832.7,4.99,0.00,26.3,25.4,00.0,35.2,28.1,05.6,0000.0,0007.56,0002.39,0001.19
2022-04-08 02:39:00,,0832.8,5.02,0.00,26.3,25.4,00.0,35.2,28.1,05.6,0000.0,0007.44,0002.35,0001.19
2022-04-08 02:40:00,,0832.8,4.99,0.00,26.3,25.4,00.0,35.2,28.1,05.7,0000.0,0007.42,0002.32,0001.18
2022-04-08 02:41:00,,0832.8,5.00,0.00,26.3,25.4,00.0,35.2,28.2,05.6,0000.0,0006.58,0002.32,0001.18
2022-04-08 02:42:00,,0832.8,5.00,0.00,26.3,25.4,00.0,35.2,28.2,05.6,0000.0,0005.88,0002.31,0001.16
2022-04-08 02:43:00,,0832.8,4.99,0.00,26.3,25.5,00.0,35.2,28.2,05.6,0000.0,0005.48,0002.24,0001.17
2022-04-08 02:44:00,,0832.8,5.00,0.00,26.3,25.5,00.0,35.2,28.2,05.6,0000.0,0004.57,0002.18,0001.17
2022-04-08 02:45:00,,0832.8,5.01,0.00,26.3,25.5,00.0,35.2,28.2,05.6,0000.0,0004.54,0002.16,0001.16
2022-04-08 02:46:00,,0832.9,5.00,0.00,26.3,25.4,00.0,35.2,28.2,05.6,0000.0,0004.46,0002.13,0001.15
2022-04-08 02:47:00,,0832.9,5.00,0.00,26.3,25.5,00.0,35.2,28.2,05.5,0000.0,0004.87,0002.18,0001.16
2022-04-08 02:48:00,,0833.1,5.00,0.00,26.3,25.5,00.0,35.2,28.1,05.5,0000.0,0004.77,0002.16,0001.15
2022-04-08 02:49:00,,0833.0,4.99,0.00,26.3,25.4,00.0,35.2,28.1,05.5,0000.0,0005.25,0002.17,0001.15
2022-04-08 02:50:00,,0833.1,5.00,0.00,26.3,25.4,00.0,35.2,28.1,05.5,0000.0,0006.10,0002.20,0001.16
2022-04-08 02:51:00,,0833.1,5.00,0.00,26.3,25.4,00.0,35.2,28.1,05.5,0000.0,0007.23,0002.22,0001.16
2022-04-08 02:52:00,,0833.0,5.00,0.00,26.3,25.3,00.0,35.2,28.0,05.5,0000.0,0007.23,0002.22,0001.16
2022-04-08 02:53:00,,0833.0,5.01,0.00,26.3,25.3,00.0,35.2,28.0,05.5,0000.0,0007.23,0002.22,0001.15
2022-04-08 02:54:00,,0833.1,5.00,0.00,26.3,25.3,00.0,35.2,28.1,05.6,0000.0,0007.40,0002.29,0001.15
2022-04-08 02:55:00,,0833.1,5.00,0.00,26.3,25.3,00.0,35.2,28.0,05.5,0000.0,0007.48,0002.30,0001.15
2022-04-08 02:56:00,,0833.1,4.99,0.00,26.2,25.2,00.0,35.2,28.0,05.6,0000.0,0007.62,0002.33,0001.16
2022-04-08 02:57:00,,0833.1,5.00,0.00,26.2,25.2,00.0,35.2,28.0,05.6,0000.0,0007.80,0002.35,0001.17
2022-04-08 02:58:00,,0833.2,5.00,0.00,26.2,25.3,00.0,35.2,28.0,05.6,0000.0,0008.02,0002.36,0001.15
2022-04-08 02:59:00,,0833.3,5.00,0.00,26.2,25.3,00.0,35.2,28.0,05.6,0000.0,0008.03,0002.37,0001.15
